Location: LDNL
(36.4545°S, 141.6685°E)
Time: 19:20:10
(UTC+10:00)

A-11 Canister half - Pass Details

Date: 03 February 2022
Orbit: 1527 x 1682 km, 47.3° (Epoch: 20 May)

Event Time Altitude Azimuth Distance (km) Brightness Sun altitude
Rises 03:24:45 0° 241° (WSW) 4,932 11.7 -32.1°
Reaches altitude 10° 03:28:02 10° 237° (WSW) 3,929 11.2 -31.8°
Maximum altitude 03:37:59 62° 157° (SSE) 1,809 9.5 -30.8°
Drops below altitude 10° 03:47:35 10° 77° (ENE) 3,795 11.3 -29.7°
Sets 03:50:41 0° 73° (ENE) 4,756 11.8 -29.4°
